Station Historical Data
Daily Summary for February 6, 2017 Units:  English    Metric   Both
« Previous Day
Next Day »
Daily Weekly Monthly Yearly Custom
  High: Low: Average:
Temperature: 47.2 °F 43.0 °F 45.6 °F
Dew Point: 45.8 °F 41.7 °F 44.2 °F
Humidity: 95 % 94 % 95 %
Wind Speed: 26.0 mph 0.0 mph 10.9 mph
Wind Gust: 33.0 mph - -
Wind:- - South
Pressure: 29.95 in 29.79 in -
Precipitation: 0.00 in    
Historical Graphs
 
 
Tabular Data for February 6, 2017
Time Temperature Dew Point Pressure Wind Wind Speed Wind Gust Humidity Rainfall Rate (Hourly) solar
00:04 44.5 °F 42.9 °F 29.80 in SSE 7.0 mph 23.0 mph 94 % 0.00 in 0.00 W/m2
00:09 44.5 °F 42.9 °F 29.80 in SSE 14.0 mph 27.0 mph 94 % 0.00 in 0.00 W/m2
00:14 44.5 °F 42.9 °F 29.80 in SSE 11.0 mph 23.0 mph 94 % 0.00 in 0.00 W/m2
00:19 44.6 °F 43.0 °F 29.80 in SE 5.0 mph 17.0 mph 94 % 0.00 in 0.00 W/m2
00:24 44.6 °F 43.0 °F 29.80 in South 22.0 mph 22.0 mph 94 % 0.00 in 0.00 W/m2
00:29 44.6 °F 43.0 °F 29.80 in South 12.0 mph 21.0 mph 94 % 0.00 in 0.00 W/m2
00:34 44.6 °F 43.0 °F 29.80 in SSE 7.0 mph 22.0 mph 94 % 0.00 in 0.00 W/m2
00:39 44.6 °F 43.0 °F 29.80 in SSE 9.0 mph 18.0 mph 94 % 0.00 in 0.00 W/m2
00:44 44.6 °F 43.0 °F 29.80 in SE 12.0 mph 16.0 mph 94 % 0.00 in 0.00 W/m2
00:49 44.6 °F 43.0 °F 29.80 in South 7.0 mph 14.0 mph 94 % 0.00 in 0.00 W/m2
00:55 44.6 °F 43.0 °F 29.80 in South 6.0 mph 14.0 mph 94 % 0.00 in 0.00 W/m2
01:00 44.6 °F 43.0 °F 29.79 in Calm   18.0 mph 94 % 0.00 in 0.00 W/m2
01:05 44.6 °F 43.0 °F 29.79 in South 9.0 mph 18.0 mph 94 % 0.00 in 0.00 W/m2
01:10 44.6 °F 43.0 °F 29.79 in South 8.0 mph 16.0 mph 94 % 0.22 in 0.00 W/m2
01:15 44.6 °F 43.0 °F 29.80 in SSE 14.0 mph 20.0 mph 94 % 0.25 in 0.00 W/m2
01:20 44.6 °F 43.0 °F 29.80 in Calm   23.0 mph 94 % 0.22 in 0.00 W/m2
01:25 44.6 °F 43.0 °F 29.80 in South 7.0 mph 17.0 mph 94 % 0.13 in 0.00 W/m2
01:30 44.7 °F 43.1 °F 29.81 in SSE 11.0 mph 16.0 mph 94 % 0.14 in 0.00 W/m2
01:35 44.6 °F 43.0 °F 29.81 in SSE 9.0 mph 17.0 mph 94 % 0.13 in 0.00 W/m2
01:40 44.7 °F 43.1 °F 29.81 in South 12.0 mph 17.0 mph 94 % 0.09 in 0.00 W/m2
01:45 44.7 °F 43.1 °F 29.82 in SW 13.0 mph 25.0 mph 94 % 0.05 in 0.00 W/m2
01:50 44.7 °F 43.1 °F 29.81 in SSW 16.0 mph 16.0 mph 94 % 0.04 in 0.00 W/m2
01:55 44.7 °F 43.1 °F 29.82 in South 12.0 mph 16.0 mph 94 % 0.00 in 0.00 W/m2
02:00 44.7 °F 43.1 °F 29.82 in South 9.0 mph 22.0 mph 94 % 0.00 in 0.00 W/m2
02:05 44.7 °F 43.1 °F 29.81 in South 9.0 mph 15.0 mph 94 % 0.00 in 0.00 W/m2
02:10 44.7 °F 43.1 °F 29.81 in SSW 8.0 mph 19.0 mph 94 % 0.00 in 0.00 W/m2
02:15 44.7 °F 43.1 °F 29.82 in South 7.0 mph 15.0 mph 94 % 0.04 in 0.00 W/m2
02:20 44.7 °F 43.1 °F 29.82 in SSE 10.0 mph 16.0 mph 94 % 0.04 in 0.00 W/m2
02:25 44.7 °F 43.1 °F 29.82 in South 8.0 mph 15.0 mph 94 % 0.04 in 0.00 W/m2
02:30 44.7 °F 43.1 °F 29.82 in Calm   12.0 mph 94 % 0.00 in 0.00 W/m2
02:35 44.7 °F 43.1 °F 29.82 in SSE 5.0 mph 18.0 mph 94 % 0.00 in 0.00 W/m2
02:40 44.8 °F 43.2 °F 29.83 in South 16.0 mph 19.0 mph 94 % 0.00 in 0.00 W/m2
02:45 44.8 °F 43.2 °F 29.83 in South 3.0 mph 15.0 mph 94 % 0.00 in 0.00 W/m2
02:50 44.8 °F 43.2 °F 29.82 in South 8.0 mph 16.0 mph 94 % 0.00 in 0.00 W/m2
02:55 44.8 °F 43.2 °F 29.82 in South 8.0 mph 18.0 mph 94 % 0.00 in 0.00 W/m2
03:00 44.8 °F 43.2 °F 29.82 in South 14.0 mph 17.0 mph 94 % 0.00 in 0.00 W/m2
03:05 44.8 °F 43.2 °F 29.83 in SSW 9.0 mph 19.0 mph 94 % 0.00 in 0.00 W/m2
03:10 44.9 °F 43.3 °F 29.83 in SW 13.0 mph 16.0 mph 94 % 0.00 in 0.00 W/m2
03:15 44.9 °F 43.3 °F 29.83 in South 4.0 mph 22.0 mph 94 % 0.00 in 0.00 W/m2
03:20 44.9 °F 43.3 °F 29.82 in South 2.0 mph 15.0 mph 94 % 0.06 in 0.00 W/m2
03:25 44.9 °F 43.3 °F 29.82 in SSW 7.0 mph 14.0 mph 94 % 0.06 in 0.00 W/m2
03:30 45.0 °F 43.4 °F 29.82 in SSW 10.0 mph 18.0 mph 94 % 0.07 in 0.00 W/m2
03:35 45.0 °F 43.7 °F 29.83 in SSE 11.0 mph 17.0 mph 95 % 0.07 in 0.00 W/m2
03:40 45.0 °F 43.7 °F 29.83 in SSW 6.0 mph 11.0 mph 95 % 0.08 in 0.00 W/m2
03:45 45.0 °F 43.7 °F 29.84 in SW 12.0 mph 20.0 mph 95 % 0.09 in 0.00 W/m2
03:50 45.0 °F 43.7 °F 29.83 in SW 5.0 mph 21.0 mph 95 % 0.13 in 0.00 W/m2
03:55 45.0 °F 43.7 °F 29.83 in South 1.0 mph 11.0 mph 95 % 0.06 in 0.00 W/m2
04:00 45.0 °F 43.7 °F 29.83 in South 9.0 mph 14.0 mph 95 % 0.04 in 0.00 W/m2
04:05 45.1 °F 43.8 °F 29.83 in SSW 8.0 mph 17.0 mph 95 % 0.00 in 0.00 W/m2
04:10 45.1 °F 43.8 °F 29.83 in South 13.0 mph 19.0 mph 95 % 0.00 in 0.00 W/m2
04:15 45.1 °F 43.8 °F 29.83 in SSW 12.0 mph 14.0 mph 95 % 0.39 in 0.00 W/m2
04:20 45.2 °F 43.9 °F 29.83 in SW 7.0 mph 20.0 mph 95 % 0.12 in 0.00 W/m2
04:25 45.2 °F 43.9 °F 29.83 in SSW 10.0 mph 22.0 mph 95 % 0.05 in 0.00 W/m2
04:30 45.2 °F 43.9 °F 29.83 in SSW 3.0 mph 13.0 mph 95 % 0.04 in 0.00 W/m2
04:35 45.2 °F 43.9 °F 29.83 in SSW 2.0 mph 16.0 mph 95 % 0.00 in 0.00 W/m2
04:40 45.3 °F 44.0 °F 29.83 in SSW 5.0 mph 13.0 mph 95 % 0.00 in 0.00 W/m2
04:45 45.3 °F 44.0 °F 29.83 in South 6.0 mph 17.0 mph 95 % 0.18 in 0.00 W/m2
04:50 45.4 °F 44.0 °F 29.83 in Calm   17.0 mph 95 % 0.08 in 0.00 W/m2
04:55 45.4 °F 44.0 °F 29.84 in SSW 4.0 mph 13.0 mph 95 % 0.76 in 0.00 W/m2
05:00 45.4 °F 44.0 °F 29.84 in SSE 10.0 mph 18.0 mph 95 % 0.12 in 0.00 W/m2
05:05 45.4 °F 44.0 °F 29.84 in SSW 7.0 mph 16.0 mph 95 % 0.06 in 0.00 W/m2
05:10 45.5 °F 44.2 °F 29.84 in SW 2.0 mph 19.0 mph 95 % 0.04 in 0.00 W/m2
05:15 45.5 °F 44.2 °F 29.85 in SSW 9.0 mph 23.0 mph 95 % 0.00 in 0.00 W/m2
05:20 45.5 °F 44.2 °F 29.85 in SSW 10.0 mph 18.0 mph 95 % 0.00 in 0.00 W/m2
05:25 45.5 °F 44.2 °F 29.85 in SSW 13.0 mph 19.0 mph 95 % 0.00 in 0.00 W/m2
05:30 45.6 °F 44.2 °F 29.85 in Calm   19.0 mph 95 % 0.00 in 0.00 W/m2
05:35 45.6 °F 44.2 °F 29.85 in SSW 16.0 mph 23.0 mph 95 % 0.00 in 0.00 W/m2
05:40 45.6 °F 44.2 °F 29.85 in SSE 4.0 mph 21.0 mph 95 % 0.00 in 0.00 W/m2
05:45 45.5 °F 44.2 °F 29.85 in SW 14.0 mph 18.0 mph 95 % 0.00 in 0.00 W/m2
05:50 45.5 °F 44.2 °F 29.85 in SSW 16.0 mph 22.0 mph 95 % 0.00 in 0.00 W/m2
05:55 45.5 °F 44.2 °F 29.85 in South 6.0 mph 17.0 mph 95 % 0.00 in 0.00 W/m2
06:00 45.5 °F 44.2 °F 29.84 in Calm   19.0 mph 95 % 0.00 in 0.00 W/m2
06:05 45.5 °F 44.2 °F 29.84 in SSW 12.0 mph 26.0 mph 95 % 0.00 in 0.00 W/m2
06:10 45.5 °F 44.2 °F 29.83 in South 16.0 mph 19.0 mph 95 % 0.00 in 0.00 W/m2
06:15 45.5 °F 44.2 °F 29.83 in South 11.0 mph 24.0 mph 95 % 0.00 in 0.00 W/m2
06:20 45.5 °F 44.2 °F 29.83 in South 9.0 mph 20.0 mph 95 % 0.00 in 0.00 W/m2
06:25 45.5 °F 44.2 °F 29.83 in South 5.0 mph 20.0 mph 95 % 0.00 in 0.00 W/m2
06:30 45.5 °F 44.2 °F 29.84 in South 6.0 mph 20.0 mph 95 % 0.00 in 0.00 W/m2
06:35 45.5 °F 44.2 °F 29.84 in SSW 16.0 mph 21.0 mph 95 % 0.00 in 0.00 W/m2
06:40 45.5 °F 44.2 °F 29.84 in South 13.0 mph 18.0 mph 95 % 0.00 in 0.00 W/m2
06:45 45.5 °F 44.2 °F 29.85 in SSW 17.0 mph 23.0 mph 95 % 0.00 in 0.00 W/m2
06:50 45.6 °F 44.2 °F 29.85 in South 8.0 mph 22.0 mph 95 % 0.00 in 0.00 W/m2
06:55 45.6 °F 44.2 °F 29.84 in SSE 7.0 mph 18.0 mph 95 % 0.00 in 0.00 W/m2
07:00 45.6 °F 44.2 °F 29.85 in SE 11.0 mph 22.0 mph 95 % 0.00 in 0.00 W/m2
07:05 45.6 °F 44.2 °F 29.85 in South 10.0 mph 17.0 mph 95 % 0.00 in 0.00 W/m2
07:10 45.7 °F 44.3 °F 29.85 in South 18.0 mph 20.0 mph 95 % 0.00 in 0.00 W/m2
07:15 45.7 °F 44.3 °F 29.85 in SSE 10.0 mph 21.0 mph 95 % 0.00 in 0.00 W/m2
07:20 45.8 °F 44.5 °F 29.85 in SSW 10.0 mph 21.0 mph 95 % 0.00 in 0.00 W/m2
07:25 45.8 °F 44.5 °F 29.86 in South 15.0 mph 27.0 mph 95 % 0.00 in 5.00 W/m2
07:30 45.8 °F 44.5 °F 29.86 in South 17.0 mph 22.0 mph 95 % 0.00 in 0.00 W/m2
07:35 45.9 °F 44.5 °F 29.86 in South 5.0 mph 20.0 mph 95 % 0.38 in 0.00 W/m2
07:40 45.9 °F 44.5 °F 29.86 in SSW 17.0 mph 21.0 mph 95 % 0.09 in 5.00 W/m2
07:45 45.9 °F 44.5 °F 29.86 in SE 20.0 mph 28.0 mph 95 % 0.05 in 11.00 W/m2
07:50 45.9 °F 44.5 °F 29.87 in South 5.0 mph 21.0 mph 95 % 0.05 in 7.00 W/m2
07:55 45.9 °F 44.5 °F 29.87 in SSW 5.0 mph 23.0 mph 95 % 0.05 in 12.00 W/m2
08:00 45.9 °F 44.5 °F 29.87 in SSW 13.0 mph 20.0 mph 95 % 0.05 in 11.00 W/m2
08:05 46.0 °F 44.7 °F 29.87 in South 6.0 mph 25.0 mph 95 % 0.05 in 11.00 W/m2
08:10 45.9 °F 44.5 °F 29.87 in South 25.0 mph 25.0 mph 95 % 0.05 in 12.00 W/m2
08:15 46.0 °F 44.7 °F 29.88 in SSE 5.0 mph 22.0 mph 95 % 0.12 in 9.00 W/m2
08:20 46.0 °F 44.7 °F 29.88 in South 12.0 mph 24.0 mph 95 % 0.33 in 14.00 W/m2
08:25 46.0 °F 44.7 °F 29.87 in SSW 12.0 mph 19.0 mph 95 % 0.14 in 23.00 W/m2
08:30 46.0 °F 44.7 °F 29.87 in South 13.0 mph 25.0 mph 95 % 0.08 in 18.00 W/m2
08:35 46.0 °F 44.7 °F 29.88 in SSW 9.0 mph 19.0 mph 95 % 0.06 in 21.00 W/m2
08:36 46.0 °F 44.7 °F 29.87 in SSE 10.0 mph 19.0 mph 95 % 0.06 in 19.00 W/m2
08:41 46.1 °F 44.8 °F 29.87 in South 21.0 mph 25.0 mph 95 % 0.06 in 23.00 W/m2
08:46 46.1 °F 44.8 °F 29.87 in SSW 15.0 mph 15.0 mph 95 % 0.07 in 23.00 W/m2
08:51 46.2 °F 44.8 °F 29.87 in South 10.0 mph 25.0 mph 95 % 0.06 in 16.00 W/m2
08:56 46.1 °F 44.8 °F 29.87 in SSW 10.0 mph 24.0 mph 95 % 0.04 in 19.00 W/m2
09:01 46.2 °F 44.8 °F 29.88 in SSW 9.0 mph 24.0 mph 95 % 0.04 in 25.00 W/m2
09:06 46.2 °F 44.8 °F 29.88 in SSE 6.0 mph 21.0 mph 95 % 0.04 in 26.00 W/m2
09:11 46.3 °F 45.0 °F 29.88 in South 19.0 mph 26.0 mph 95 % 0.04 in 42.00 W/m2
09:16 46.3 °F 45.0 °F 29.88 in South 9.0 mph 9.0 mph 95 % 0.00 in 30.00 W/m2
09:21 46.3 °F 45.0 °F 29.88 in South 17.0 mph 25.0 mph 95 % 0.14 in 30.00 W/m2
09:26 46.3 °F 45.0 °F 29.88 in SSW 10.0 mph 23.0 mph 95 % 0.14 in 33.00 W/m2
09:31 46.3 °F 45.0 °F 29.89 in South 12.0 mph 23.0 mph 95 % 0.06 in 56.00 W/m2
09:36 46.3 °F 45.0 °F 29.89 in South 9.0 mph 31.0 mph 95 % 0.05 in 35.00 W/m2
09:41 46.3 °F 45.0 °F 29.89 in SW 8.0 mph 24.0 mph 95 % 0.07 in 30.00 W/m2
09:46 46.3 °F 45.0 °F 29.90 in SW 4.0 mph 21.0 mph 95 % 0.19 in 19.00 W/m2
09:51 46.3 °F 45.0 °F 29.91 in SW 6.0 mph 10.0 mph 95 % 0.13 in 32.00 W/m2
09:56 46.3 °F 45.0 °F 29.91 in South 1.0 mph 24.0 mph 95 % 0.07 in 30.00 W/m2
10:01 46.4 °F 45.0 °F 29.90 in SSE 4.0 mph 24.0 mph 95 % 0.07 in 32.00 W/m2
10:06 46.4 °F 45.0 °F 29.91 in SW 10.0 mph 17.0 mph 95 % 0.07 in 25.00 W/m2
10:11 46.5 °F 45.2 °F 29.91 in SSW 17.0 mph 17.0 mph 95 % 0.22 in 72.00 W/m2
10:16 46.5 °F 45.2 °F 29.91 in SSW 12.0 mph 19.0 mph 95 % 0.14 in 58.00 W/m2
10:21 46.7 °F 45.3 °F 29.91 in SSE 9.0 mph 19.0 mph 95 % 0.46 in 37.00 W/m2
10:26 46.7 °F 45.3 °F 29.91 in SSW 13.0 mph 23.0 mph 95 % 0.10 in 98.00 W/m2
10:31 46.8 °F 45.5 °F 29.91 in SE 9.0 mph 33.0 mph 95 % 0.06 in 74.00 W/m2
10:36 46.9 °F 45.5 °F 29.91 in South 13.0 mph 25.0 mph 95 % 0.06 in 47.00 W/m2
10:41 46.8 °F 45.5 °F 29.91 in South 11.0 mph 24.0 mph 95 % 0.06 in 56.00 W/m2
10:46 46.9 °F 45.5 °F 29.91 in SSE 13.0 mph 21.0 mph 95 % 0.05 in 51.00 W/m2
10:51 46.9 °F 45.5 °F 29.91 in SW 10.0 mph 21.0 mph 95 % 0.05 in 51.00 W/m2
10:56 46.9 °F 45.5 °F 29.91 in SSW 5.0 mph 21.0 mph 95 % 0.06 in 40.00 W/m2
11:01 46.9 °F 45.5 °F 29.91 in SSE 9.0 mph 30.0 mph 95 % 0.48 in 26.00 W/m2
11:06 46.9 °F 45.5 °F 29.91 in Calm   21.0 mph 95 % 0.23 in 63.00 W/m2
11:11 46.9 °F 45.5 °F 29.91 in SSE 4.0 mph 16.0 mph 95 % 0.09 in 54.00 W/m2
11:16 47.0 °F 45.7 °F 29.92 in SSW 11.0 mph 11.0 mph 95 % 0.09 in 49.00 W/m2
11:21 47.0 °F 45.7 °F 29.92 in SW 20.0 mph 23.0 mph 95 % 0.06 in 46.00 W/m2
11:26 47.0 °F 45.7 °F 29.92 in WSW 12.0 mph 24.0 mph 95 % 0.05 in 56.00 W/m2
11:31 47.0 °F 45.7 °F 29.91 in South 10.0 mph 19.0 mph 95 % 0.09 in 83.00 W/m2
11:36 47.0 °F 45.7 °F 29.91 in South 5.0 mph 19.0 mph 95 % 0.10 in 37.00 W/m2
11:41 47.0 °F 45.7 °F 29.91 in SSE 12.0 mph 25.0 mph 95 % 0.27 in 67.00 W/m2
11:46 47.0 °F 45.7 °F 29.91 in South 13.0 mph 21.0 mph 95 % 0.10 in 90.00 W/m2
11:51 47.0 °F 45.7 °F 29.91 in SW 11.0 mph 24.0 mph 95 % 0.06 in 54.00 W/m2
11:56 47.0 °F 45.7 °F 29.91 in WSW 4.0 mph 24.0 mph 95 % 0.06 in 70.00 W/m2
12:01 47.1 °F 45.7 °F 29.91 in SSE 10.0 mph 16.0 mph 95 % 0.06 in 60.00 W/m2
12:06 47.1 °F 45.7 °F 29.90 in South 9.0 mph 20.0 mph 95 % 0.06 in 72.00 W/m2
12:11 47.2 °F 45.8 °F 29.90 in SSW 4.0 mph 8.0 mph 95 % 0.18 in 40.00 W/m2
12:16 47.2 °F 45.8 °F 29.90 in SSW 4.0 mph 14.0 mph 95 % 1.12 in 37.00 W/m2
12:21 47.1 °F 45.7 °F 29.90 in South 16.0 mph 17.0 mph 95 % 0.52 in 30.00 W/m2
12:26 47.1 °F 45.7 °F 29.90 in South 17.0 mph 27.0 mph 95 % 0.10 in 39.00 W/m2
12:31 47.1 °F 45.7 °F 29.90 in SE 2.0 mph 6.0 mph 95 % 0.10 in 39.00 W/m2
12:36 47.0 °F 45.7 °F 29.91 in SSE 12.0 mph 26.0 mph 95 % 0.08 in 32.00 W/m2
12:41 47.0 °F 45.7 °F 29.91 in SSW 3.0 mph 28.0 mph 95 % 0.08 in 32.00 W/m2
12:46 47.0 °F 45.7 °F 29.91 in SSW 25.0 mph 30.0 mph 95 % 0.05 in 33.00 W/m2
12:51 47.0 °F 45.7 °F 29.91 in South 10.0 mph 10.0 mph 95 % 0.00 in 37.00 W/m2
12:56 47.0 °F 45.7 °F 29.91 in SSW 5.0 mph 24.0 mph 95 % 0.35 in 72.00 W/m2
13:01 47.0 °F 45.7 °F 29.91 in SW 22.0 mph 28.0 mph 95 % 0.10 in 37.00 W/m2
13:06 47.0 °F 45.7 °F 29.91 in SSW 11.0 mph 23.0 mph 95 % 0.10 in 49.00 W/m2
13:11 46.9 °F 45.5 °F 29.91 in SSW 12.0 mph 24.0 mph 95 % 0.06 in 58.00 W/m2
13:16 46.9 °F 45.5 °F 29.91 in SSW 20.0 mph 20.0 mph 95 % 0.21 in 54.00 W/m2
13:21 46.9 °F 45.5 °F 29.92 in SSW 14.0 mph 21.0 mph 95 % 0.09 in 39.00 W/m2
13:26 46.9 °F 45.5 °F 29.92 in South 2.0 mph 20.0 mph 95 % 0.14 in 44.00 W/m2
13:31 47.0 °F 45.7 °F 29.91 in SSW 12.0 mph 16.0 mph 95 % 0.22 in 28.00 W/m2
13:36 47.0 °F 45.7 °F 29.91 in South 5.0 mph 6.0 mph 95 % 0.37 in 33.00 W/m2
13:41 47.0 °F 45.7 °F 29.91 in South 10.0 mph 25.0 mph 95 % 0.24 in 26.00 W/m2
13:46 46.9 °F 45.5 °F 29.91 in South 7.0 mph 20.0 mph 95 % 0.15 in 23.00 W/m2
13:51 46.9 °F 45.5 °F 29.91 in South 11.0 mph 25.0 mph 95 % 0.19 in 26.00 W/m2
13:56 46.9 °F 45.5 °F 29.91 in SSW 11.0 mph 29.0 mph 95 % 0.10 in 18.00 W/m2
14:01 46.9 °F 45.5 °F 29.91 in South 11.0 mph 22.0 mph 95 % 0.44 in 28.00 W/m2
14:06 46.9 °F 45.5 °F 29.91 in SSW 10.0 mph 24.0 mph 95 % 0.19 in 21.00 W/m2
14:11 46.8 °F 45.5 °F 29.91 in SSE 13.0 mph 27.0 mph 95 % 0.17 in 32.00 W/m2
14:16 46.8 °F 45.5 °F 29.91 in South 17.0 mph 17.0 mph 95 % 0.19 in 23.00 W/m2
14:21 46.8 °F 45.5 °F 29.91 in SSW 14.0 mph 25.0 mph 95 % 0.24 in 21.00 W/m2
14:26 46.8 °F 45.5 °F 29.91 in South 7.0 mph 25.0 mph 95 % 0.15 in 25.00 W/m2
14:31 46.8 °F 45.5 °F 29.91 in SW 10.0 mph 31.0 mph 95 % 0.08 in 19.00 W/m2
14:36 46.8 °F 45.5 °F 29.91 in South 5.0 mph 24.0 mph 95 % 0.13 in 23.00 W/m2
14:41 46.8 °F 45.5 °F 29.91 in South 8.0 mph 22.0 mph 95 % 0.10 in 28.00 W/m2
14:46 46.8 °F 45.5 °F 29.91 in SSW 11.0 mph 11.0 mph 95 % 0.06 in 21.00 W/m2
14:51 46.9 °F 45.5 °F 29.91 in South 2.0 mph 20.0 mph 95 % 0.46 in 23.00 W/m2
14:56 46.9 °F 45.5 °F 29.91 in South 19.0 mph 24.0 mph 95 % 0.33 in 32.00 W/m2
15:01 47.0 °F 45.7 °F 29.91 in SSE 5.0 mph 27.0 mph 95 % 0.56 in 16.00 W/m2
15:06 47.0 °F 45.7 °F 29.91 in SSW 13.0 mph 15.0 mph 95 % 0.18 in 19.00 W/m2
15:11 47.1 °F 45.7 °F 29.91 in South 17.0 mph 17.0 mph 95 % 0.14 in 12.00 W/m2
15:16 47.1 °F 45.7 °F 29.91 in SSW 2.0 mph 21.0 mph 95 % 0.19 in 12.00 W/m2
15:21 47.1 °F 45.7 °F 29.91 in SSW 8.0 mph 22.0 mph 95 % 0.25 in 19.00 W/m2
15:26 47.1 °F 45.7 °F 29.91 in South 13.0 mph 23.0 mph 95 % 0.16 in 21.00 W/m2
15:31 47.0 °F 45.7 °F 29.91 in South 9.0 mph 29.0 mph 95 % 0.17 in 14.00 W/m2
15:36 47.0 °F 45.7 °F 29.91 in South 12.0 mph 27.0 mph 95 % 0.12 in 9.00 W/m2
15:41 47.0 °F 45.7 °F 29.91 in SSE 11.0 mph 22.0 mph 95 % 0.09 in 11.00 W/m2
15:46 46.9 °F 45.5 °F 29.91 in SSE 17.0 mph 17.0 mph 95 % 0.08 in 9.00 W/m2
15:51 46.8 °F 45.5 °F 29.92 in SSE 18.0 mph 27.0 mph 95 % 0.29 in 9.00 W/m2
15:56 46.7 °F 45.3 °F 29.91 in South 7.0 mph 23.0 mph 95 % 0.33 in 7.00 W/m2
16:01 46.7 °F 45.3 °F 29.90 in SSW 5.0 mph 28.0 mph 95 % 0.17 in 5.00 W/m2
16:06 46.6 °F 45.2 °F 29.90 in South 21.0 mph 24.0 mph 95 % 0.28 in 9.00 W/m2
16:11 46.5 °F 45.2 °F 29.90 in SSE 26.0 mph 30.0 mph 95 % 0.15 in 7.00 W/m2
16:16 46.5 °F 45.2 °F 29.91 in SSE 8.0 mph 30.0 mph 95 % 0.15 in 7.00 W/m2
16:21 46.4 °F 45.0 °F 29.91 in South 17.0 mph 24.0 mph 95 % 0.40 in 5.00 W/m2
16:26 46.3 °F 45.0 °F 29.90 in South 15.0 mph 15.0 mph 95 % 0.36 in 0.00 W/m2
16:31 46.3 °F 45.0 °F 29.90 in South 6.0 mph 21.0 mph 95 % 0.34 in 0.00 W/m2
16:36 46.3 °F 45.0 °F 29.90 in SSW 24.0 mph 28.0 mph 95 % 0.33 in 0.00 W/m2
16:41 46.3 °F 45.0 °F 29.90 in South 7.0 mph 25.0 mph 95 % 0.36 in 5.00 W/m2
16:46 46.3 °F 45.0 °F 29.90 in SSW 24.0 mph 29.0 mph 95 % 0.27 in 0.00 W/m2
16:51 46.2 °F 44.8 °F 29.91 in SSW 13.0 mph 13.0 mph 95 % 0.16 in 0.00 W/m2
16:56 46.1 °F 44.8 °F 29.91 in SSE 25.0 mph 25.0 mph 95 % 0.21 in 0.00 W/m2
17:01 46.1 °F 44.8 °F 29.90 in SE 10.0 mph 19.0 mph 95 % 0.37 in 0.00 W/m2
17:06 46.2 °F 44.8 °F 29.91 in South 7.0 mph 7.0 mph 95 % 0.17 in 0.00 W/m2
17:11 46.3 °F 45.0 °F 29.90 in SSE 10.0 mph 10.0 mph 95 % 0.16 in 0.00 W/m2
17:16 46.3 °F 45.0 °F 29.91 in South 24.0 mph 24.0 mph 95 % 0.17 in 0.00 W/m2
17:21 46.3 °F 45.0 °F 29.91 in SSW 23.0 mph 25.0 mph 95 % 0.18 in 0.00 W/m2
17:26 46.3 °F 45.0 °F 29.91 in SSW 12.0 mph 13.0 mph 95 % 0.15 in 0.00 W/m2
17:31 46.3 °F 45.0 °F 29.91 in South 16.0 mph 18.0 mph 95 % 0.22 in 0.00 W/m2
17:36 46.4 °F 45.0 °F 29.91 in SW 13.0 mph 13.0 mph 95 % 0.16 in 0.00 W/m2
17:41 46.4 °F 45.0 °F 29.91 in SSW 24.0 mph 26.0 mph 95 % 0.14 in 0.00 W/m2
17:46 46.4 °F 45.0 °F 29.91 in South 15.0 mph 16.0 mph 95 % 0.17 in 0.00 W/m2
17:51 46.3 °F 45.0 °F 29.91 in SSW 23.0 mph 26.0 mph 95 % 0.22 in 0.00 W/m2
17:56 46.3 °F 45.0 °F 29.92 in SSW 10.0 mph 12.0 mph 95 % 0.19 in 0.00 W/m2
18:01 46.3 °F 45.0 °F 29.91 in SSE 10.0 mph 16.0 mph 95 % 0.17 in 0.00 W/m2
18:06 46.0 °F 44.7 °F 29.91 in SSE 14.0 mph 14.0 mph 95 % 0.43 in 0.00 W/m2
18:11 45.9 °F 44.5 °F 29.92 in SSE 6.0 mph 9.0 mph 95 % 0.27 in 0.00 W/m2
18:16 45.8 °F 44.5 °F 29.92 in SSE 7.0 mph 12.0 mph 95 % 0.18 in 0.00 W/m2
18:21 45.6 °F 44.2 °F 29.92 in SW 11.0 mph 11.0 mph 95 % 0.21 in 0.00 W/m2
18:26 45.5 °F 44.2 °F 29.91 in Calm   1.0 mph 95 % 0.19 in 0.00 W/m2
18:31 45.5 °F 44.2 °F 29.91 in SSE 7.0 mph 7.0 mph 95 % 0.24 in 0.00 W/m2
18:36 45.6 °F 44.2 °F 29.92 in South 7.0 mph 12.0 mph 95 % 0.15 in 0.00 W/m2
18:41 45.6 °F 44.2 °F 29.92 in SSE 8.0 mph 13.0 mph 95 % 0.65 in 0.00 W/m2
18:46 45.5 °F 44.2 °F 29.93 in SW 16.0 mph 26.0 mph 95 % 0.38 in 0.00 W/m2
18:51 45.5 °F 44.2 °F 29.92 in South 8.0 mph 9.0 mph 95 % 0.19 in 0.00 W/m2
18:56 45.5 °F 44.2 °F 29.92 in SSW 6.0 mph 14.0 mph 95 % 0.15 in 0.00 W/m2
19:01 45.5 °F 44.2 °F 29.92 in SE 21.0 mph 25.0 mph 95 % 0.15 in 0.00 W/m2
19:06 45.4 °F 44.0 °F 29.92 in SSW 10.0 mph 13.0 mph 95 % 0.15 in 0.00 W/m2
19:11 45.4 °F 44.0 °F 29.93 in SSE 10.0 mph 13.0 mph 95 % 0.19 in 0.00 W/m2
19:16 45.3 °F 44.0 °F 29.93 in SSE 17.0 mph 21.0 mph 95 % 0.15 in 0.00 W/m2
19:21 45.2 °F 43.9 °F 29.92 in SSE 9.0 mph 23.0 mph 95 % 0.17 in 0.00 W/m2
19:26 45.2 °F 43.9 °F 29.93 in South 10.0 mph 22.0 mph 95 % 0.22 in 0.00 W/m2
19:31 45.1 °F 43.8 °F 29.92 in South 20.0 mph 24.0 mph 95 % 0.23 in 0.00 W/m2
19:36 45.0 °F 43.7 °F 29.92 in SE 11.0 mph 17.0 mph 95 % 0.24 in 0.00 W/m2
19:41 44.9 °F 43.6 °F 29.93 in SSE 6.0 mph 16.0 mph 95 % 0.24 in 0.00 W/m2
19:46 44.9 °F 43.6 °F 29.94 in South 18.0 mph 18.0 mph 95 % 0.25 in 0.00 W/m2
19:51 44.7 °F 43.4 °F 29.95 in South 9.0 mph 9.0 mph 95 % 0.45 in 0.00 W/m2
19:56 44.7 °F 43.4 °F 29.94 in SSW 18.0 mph 22.0 mph 95 % 0.28 in 0.00 W/m2
20:01 44.6 °F 43.3 °F 29.94 in SSE 13.0 mph 19.0 mph 95 % 0.22 in 0.00 W/m2
20:06 44.6 °F 43.3 °F 29.94 in SSW 24.0 mph 30.0 mph 95 % 0.26 in 0.00 W/m2
20:11 44.7 °F 43.4 °F 29.94 in SSW 19.0 mph 26.0 mph 95 % 0.23 in 0.00 W/m2
20:16 44.7 °F 43.4 °F 29.94 in SSW 7.0 mph 8.0 mph 95 % 0.19 in 0.00 W/m2
20:21 44.7 °F 43.4 °F 29.94 in SSW 16.0 mph 23.0 mph 95 % 0.14 in 0.00 W/m2
20:26 44.7 °F 43.4 °F 29.94 in SSE 15.0 mph 17.0 mph 95 % 0.13 in 0.00 W/m2
20:31 44.8 °F 43.5 °F 29.94 in SE 14.0 mph 14.0 mph 95 % 0.18 in 0.00 W/m2
20:36 44.7 °F 43.4 °F 29.93 in South 6.0 mph 10.0 mph 95 % 0.13 in 0.00 W/m2
20:41 44.6 °F 43.3 °F 29.94 in SSW 10.0 mph 20.0 mph 95 % 0.19 in 0.00 W/m2
20:46 44.6 °F 43.3 °F 29.94 in SSE 9.0 mph 10.0 mph 95 % 0.10 in 0.00 W/m2
20:51 44.7 °F 43.4 °F 29.94 in WSW 16.0 mph 28.0 mph 95 % 0.14 in 0.00 W/m2
20:56 44.7 °F 43.4 °F 29.94 in SW 17.0 mph 18.0 mph 95 % 0.15 in 0.00 W/m2
21:01 44.7 °F 43.4 °F 29.94 in SSE 24.0 mph 25.0 mph 95 % 0.14 in 0.00 W/m2
21:06 44.8 °F 43.5 °F 29.94 in SSW 12.0 mph 18.0 mph 95 % 0.13 in 0.00 W/m2
21:11 44.7 °F 43.4 °F 29.94 in SSE 9.0 mph 25.0 mph 95 % 0.12 in 0.00 W/m2
21:16 44.7 °F 43.4 °F 29.94 in SE 15.0 mph 24.0 mph 95 % 0.13 in 0.00 W/m2
21:21 44.6 °F 43.3 °F 29.94 in South 11.0 mph 19.0 mph 95 % 0.12 in 0.00 W/m2
21:26 44.5 °F 43.2 °F 29.94 in SSE 19.0 mph 19.0 mph 95 % 0.07 in 0.00 W/m2
21:31 44.4 °F 43.1 °F 29.94 in South 9.0 mph 17.0 mph 95 % 0.07 in 0.00 W/m2
21:36 44.3 °F 43.0 °F 29.94 in SSE 14.0 mph 17.0 mph 95 % 0.10 in 0.00 W/m2
21:41 44.3 °F 43.0 °F 29.93 in South 13.0 mph 21.0 mph 95 % 0.10 in 0.00 W/m2
21:46 44.2 °F 42.9 °F 29.93 in South 8.0 mph 19.0 mph 95 % 0.14 in 0.00 W/m2
21:51 44.2 °F 42.9 °F 29.93 in South 9.0 mph 13.0 mph 95 % 0.10 in 0.00 W/m2
21:56 44.1 °F 42.8 °F 29.93 in SSE 20.0 mph 22.0 mph 95 % 0.10 in 0.00 W/m2
22:01 44.0 °F 42.7 °F 29.93 in SSE 17.0 mph 24.0 mph 95 % 0.12 in 0.00 W/m2
22:06 44.0 °F 42.7 °F 29.93 in SSE 11.0 mph 16.0 mph 95 % 0.10 in 0.00 W/m2
22:11 43.9 °F 42.6 °F 29.93 in SSE 21.0 mph 24.0 mph 95 % 0.10 in 0.00 W/m2
22:16 43.9 °F 42.6 °F 29.93 in South 8.0 mph 19.0 mph 95 % 0.09 in 0.00 W/m2
22:21 43.8 °F 42.5 °F 29.93 in South 8.0 mph 14.0 mph 95 % 0.16 in 0.00 W/m2
22:26 43.8 °F 42.5 °F 29.93 in SSE 25.0 mph 28.0 mph 95 % 0.15 in 0.00 W/m2
22:31 43.7 °F 42.4 °F 29.92 in SE 9.0 mph 27.0 mph 95 % 0.10 in 0.00 W/m2
22:36 43.6 °F 42.3 °F 29.92 in South 11.0 mph 17.0 mph 95 % 0.13 in 0.00 W/m2
22:41 43.6 °F 42.3 °F 29.92 in SSE 9.0 mph 19.0 mph 95 % 0.13 in 0.00 W/m2
22:46 43.6 °F 42.3 °F 29.92 in SSE 9.0 mph 26.0 mph 95 % 0.10 in 0.00 W/m2
22:51 43.5 °F 42.2 °F 29.92 in SSE 5.0 mph 16.0 mph 95 % 0.10 in 0.00 W/m2
22:56 43.5 °F 42.2 °F 29.91 in SSW 18.0 mph 26.0 mph 95 % 0.10 in 0.00 W/m2
23:01 43.4 °F 42.1 °F 29.92 in SE 22.0 mph 22.0 mph 95 % 0.08 in 0.00 W/m2
23:06 43.4 °F 42.1 °F 29.92 in SE 13.0 mph 15.0 mph 95 % 0.08 in 0.00 W/m2
23:11 43.4 °F 42.1 °F 29.92 in SE 13.0 mph 19.0 mph 95 % 0.07 in 0.00 W/m2
23:16 43.3 °F 42.0 °F 29.92 in SE 10.0 mph 17.0 mph 95 % 0.07 in 0.00 W/m2
23:21 43.3 °F 42.0 °F 29.91 in SSE 9.0 mph 13.0 mph 95 % 0.06 in 0.00 W/m2
23:26 43.3 °F 42.0 °F 29.91 in SSE 4.0 mph 13.0 mph 95 % 0.06 in 0.00 W/m2
23:31 43.2 °F 41.9 °F 29.91 in South 12.0 mph 13.0 mph 95 % 0.06 in 0.00 W/m2
23:36 43.2 °F 41.9 °F 29.91 in South 18.0 mph 20.0 mph 95 % 0.05 in 0.00 W/m2
23:41 43.1 °F 41.8 °F 29.90 in South 12.0 mph 14.0 mph 95 % 0.05 in 0.00 W/m2
23:46 43.1 °F 41.8 °F 29.90 in SSE 8.0 mph 21.0 mph 95 % 0.07 in 0.00 W/m2
23:51 43.1 °F 41.8 °F 29.89 in SSE 10.0 mph 12.0 mph 95 % 0.07 in 0.00 W/m2
23:56 43.0 °F 41.7 °F 29.89 in SSE 9.0 mph 13.0 mph 95 % 0.05 in 0.00 W/m2
Juneau County Weather
Compliments of Weather Underground - 4.5 mb
 WU-history PHP script courtesy of   Juneau County Weather.
powered by Cumulus v1.9.3 (1059)
Ambient Weather VWS v14.00
Top Contact Website Map Copyright © 2007 - 2018 Foresthillweather.com Never base important decisions on this or any weather information obtained from the Internet